Regional Weather Roundup
Issued by NWS

Home | Current Version | Previous Version | Graphics & Text | Print | Product List | Glossary On
Versions: 1 2 3 4 5 6 7 8 9 10 11 12 13 14 15 16 17 18 19 20 21 22 23 24 25 26 27 28 29 30 31 32 33 34 35 36 37 38 39 40 41 42 43 44 45 46 47 48 49 50
000
ASUS43 KFSD 180602
RWRSD

WEATHER ROUNDUP FOR SOUTH DAKOTA
NATIONAL WEATHER SERVICE SIOUX FALLS SD
100 AM CDT WED OCT 18 2017

NOTE: "FAIR" INDICATES FEW OR NO CLOUDS BELOW 12,000 FEET WITH NO
SIGNIFICANT WEATHER AND/OR OBSTRUCTIONS TO VISIBILITY.


SDZ001>005-009-010-012>017-180700-
NORTHWEST AND NORTH CENTRAL SOUTH DAKOTA

CITY           SKY/WX    TMP DP  RH WIND       PRES   REMARKS
BUFFALO          N/A     56  26  31 W16       29.64F
FAITH            N/A     51  28  41 S15       29.70F
MOBRIDGE       PTCLDY    49  41  74 SE5       29.65F
$$

SDZ012>016-024>037-041>051-057-063-072>074-180700-
SOUTHWEST AND SOUTH CENTRAL SOUTH DAKOTA

CITY           SKY/WX    TMP DP  RH WIND       PRES   REMARKS
RAPID CTY ARPT CLOUDY    50  25  37 S7        29.78F
PIERRE         CLEAR     54  33  45 SW9       29.71F
CUSTER         CLOUDY    55  14  19 W7        29.94F
ELLSWORTH AFB  CLOUDY    56  22  26 SW10      29.76F
PHILIP         CLOUDY    46  33  60 W9        29.75F
PINE RIDGE     CLOUDY    48  26  42 W3        29.86F
SPEARFISH      FAIR      70  18  13 SW17G30   29.77F
WINNER         FAIR      59  31  34 SW17      29.78F
$$

SDZ004>011-016>023-039-040-180700-
NORTHEAST SOUTH DAKOTA

CITY           SKY/WX    TMP DP  RH WIND       PRES   REMARKS
ABERDEEN       CLOUDY    54  41  61 S9        29.72F
WATERTOWN      CLEAR     49  41  74 SE8       29.78F
BROOKINGS      CLEAR     53  43  68 S13       29.83F
SISSETON         N/A     64  39  39 SW22G29   29.71F
$$

SDZ017-020-022-023-036>040-048>070-180700-
SOUTHEAST SOUTH DAKOTA

CITY           SKY/WX    TMP DP  RH WIND       PRES   REMARKS
SIOUX FALLS    CLEAR     56  46  69 S10       29.87F
HURON          CLEAR     54  40  59 S13       29.76F
CHAMBERLAIN    CLOUDY    58  38  46 SW7       29.76F
MITCHELL       CLEAR     56  41  57 S13       29.80F
YANKTON        CLEAR     58  45  62 S8        29.86F
$$

ABBREVIATIONS USED IN REMARKS
   TC - TEMPERATURE IN CELSIUS
  WCI - WIND CHILL INDEX
   HX - HEAT INDEX
  VSB - VISIBILITY





USA.gov is the U.S. government's official web portal to all federal, state and local government web resources and services.